,,PA_Meas_PMT16A,,PR_Meas_QMR101_102,,RH_Meas_QMH101,,SR_Meas_QMS101,,TA_Meas_QMH101,,GenWind,,GenWind,
time,status,PA,status,PR,status,RH,status,SR,status,TA,status,DirAvg,status,SpdAvg,
2011-07-12, 00:00:05,VALID,916.425,VALID,0,VALID,97.1986,VALID,0,VALID,18.9814,VALID,251,VALID,3.81836,
2011-07-12, 00:01:05,VALID,916.498,VALID,0,VALID,97.229,VALID,0,VALID,19.0413,VALID,258,VALID,1.20352,
2011-07-12, 00:02:05,VALID,916.404,VALID,0,VALID,97.2595,VALID,0,VALID,19.0023,VALID,241,VALID,1.62344,
2011-07-12, 00:03:05,VALID,916.509,VALID,0,VALID,97.2443,VALID,0,VALID,18.9814,VALID,257,VALID,1.73594,
2011-07-12, 00:04:05,VALID,916.452,VALID,0,VALID,97.2595,VALID,0,VALID,18.9814,VALID,32,VALID,2.70781,
2011-07-12, 00:05:05,VALID,916.239,VALID,0,VALID,97.2748,VALID,0,VALID,19.0008,VALID,17,VALID,3.37695,
2011-07-12, 00:06:05,VALID,916.437,VALID,0,VALID,97.2519,VALID,0,VALID,18.9814,VALID,282,VALID,0.790625,
2011-07-12, 00:07:05,VALID,916.394,VALID,0,VALID,97.2977,VALID,0,VALID,19.0008,VALID,130,VALID,0.913672,
2011-07-12, 00:08:05,VALID,916.331,VALID,0,VALID,97.29,VALID,0,VALID,18.9828,VALID,313,VALID,1.72695,
2011-07-12, 00:09:05,VALID,916.371,VALID,0,VALID,97.2748,VALID,0,VALID,18.9828,VALID,304,VALID,1.04219,
2011-07-12, 00:10:05,VALID,916.339,VALID,0,VALID,97.2977,VALID,0,VALID,18.9619,VALID,328,VALID,2.06211,
2011-07-12, 00:11:05,VALID,916.22,VALID,0,VALID,97.2748,VALID,0,VALID,18.9438,VALID,41,VALID,2.23867,
2011-07-12, 00:12:05,VALID,916.244,VALID,0,VALID,97.2748,VALID,0,VALID,18.9229,VALID,310,VALID,1.76094,
2011-07-12, 00:13:05,VALID,916.322,VALID,0,VALID,97.2824,VALID,0,VALID,18.9034,VALID,257,VALID,2.42891,
2011-07-12, 00:14:05,VALID,916.279,VALID,0,VALID,97.3205,VALID,0,VALID,18.9243,VALID,35,VALID,4.0543,
2011-07-12, 00:15:05,VALID,916.318,VALID,0,VALID,97.2977,VALID,0,VALID,18.9229,VALID,334,VALID,1.62656,
2011-07-12, 00:16:05,VALID,916.245,VALID,0,VALID,97.3281,VALID,0,VALID,18.9034,VALID,20,VALID,1.28203,
2011-07-12, 00:17:05,VALID,916.329,VALID,0,VALID,97.3663,VALID,0,VALID,18.9229,VALID,344,VALID,0.867969,
2011-07-12, 00:18:05,VALID,916.299,VALID,0,VALID,97.3205,VALID,0,VALID,18.9424,VALID,36,VALID,1.59492,
2011-07-12, 00:19:05,VALID,916.257,VALID,0,VALID,97.3129,VALID,0,VALID,18.9243,VALID,34,VALID,1.75586,
2011-07-12, 00:20:05,VALID,916.28,VALID,0,VALID,97.3205,VALID,0,VALID,18.9034,VALID,200,VALID,0.819141,
2011-07-12, 00:21:05,VALID,916.302,VALID,0,VALID,97.3281,VALID,0,VALID,18.9034,VALID,45,VALID,1.75234,
2011-07-12, 00:22:05,VALID,916.203,VALID,0,VALID,97.3434,VALID,0,VALID,18.9438,VALID,17,VALID,2.27266,
2011-07-12, 00:23:05,VALID,916.215,VALID,0,VALID,97.3281,VALID,0,VALID,18.9243,VALID,10,VALID,1.275,
2011-07-12, 00:24:05,VALID,916.221,VALID,0,VALID,97.3434,VALID,0,VALID,18.9034,VALID,30,VALID,1.81484,
2011-07-12, 00:25:05,VALID,916.225,VALID,0,VALID,97.3663,VALID,0,VALID,18.9633,VALID,352,VALID,0.502344,
2011-07-12, 00:26:05,VALID,916.271,VALID,0.2,VALID,97.3434,VALID,0,VALID,18.9229,VALID,50,VALID,0.775391,
2011-07-12, 00:27:05,VALID,916.187,VALID,0,VALID,97.3358,VALID,0,VALID,18.9438,VALID,24,VALID,1.74805,
2011-07-12, 00:28:05,VALID,916.205,VALID,0,VALID,97.3815,VALID,0,VALID,18.9438,VALID,59,VALID,0.585156,
2011-07-12, 00:29:05,VALID,916.116,VALID,0.2,VALID,97.351,VALID,0,VALID,18.9229,VALID,49,VALID,1.44766,
2011-07-12, 00:30:05,VALID,916.124,VALID,0,VALID,97.3586,VALID,0,VALID,18.9424,VALID,238,VALID,0.636328,
2011-07-12, 00:31:05,VALID,916.179,VALID,0,VALID,97.3281,VALID,0,VALID,18.9229,VALID,104,VALID,1.10234,
2011-07-12, 00:32:05,VALID,916.13,VALID,0,VALID,97.3281,VALID,0,VALID,18.9048,VALID,309,VALID,1.36875,
2011-07-12, 00:33:05,VALID,916.082,VALID,0,VALID,97.3434,VALID,0,VALID,18.9243,VALID,329,VALID,1.43164,
2011-07-12, 00:34:05,VALID,916.165,VALID,0,VALID,97.351,VALID,0,VALID,18.9243,VALID,289,VALID,1.14531,
2011-07-12, 00:35:05,VALID,916.122,VALID,0,VALID,97.3968,VALID,0,VALID,18.9229,VALID,27,VALID,1.08984,
2011-07-12, 00:36:05,VALID,916.093,VALID,0,VALID,97.3815,VALID,0,VALID,18.9424,VALID,327,VALID,2.05273,
2011-07-12, 00:37:05,VALID,916.003,VALID,0,VALID,97.3815,VALID,0,VALID,18.9633,VALID,15,VALID,3.54688,
2011-07-12, 00:38:05,VALID,916.082,VALID,0,VALID,97.3739,VALID,0,VALID,18.9633,VALID,256,VALID,1.81719,
2011-07-12, 00:39:05,VALID,916.092,VALID,0.2,VALID,97.3739,VALID,0,VALID,18.9828,VALID,173,VALID,1.57617,
2011-07-12, 00:40:05,VALID,916.128,VALID,0,VALID,97.3891,VALID,0,VALID,18.9619,VALID,8,VALID,2.05273,
2011-07-12, 00:41:05,VALID,916.11,VALID,0,VALID,97.3815,VALID,0,VALID,18.9828,VALID,266,VALID,0.992188,
2011-07-12, 00:42:05,VALID,916.153,VALID,0,VALID,97.3739,VALID,0,VALID,19.0023,VALID,135,VALID,0.899219,
2011-07-12, 00:43:05,VALID,916.117,VALID,0,VALID,97.3815,VALID,0,VALID,19.0218,VALID,37,VALID,1.33398,
2011-07-12, 00:44:05,VALID,916.088,VALID,0,VALID,97.3663,VALID,0,VALID,19.0218,VALID,59,VALID,1.41211,
2011-07-12, 00:45:05,VALID,916.126,VALID,0,VALID,97.3739,VALID,0,VALID,19.0023,VALID,290,VALID,1.44883,
2011-07-12, 00:46:05,VALID,916.089,VALID,0,VALID,97.351,VALID,0,VALID,18.9619,VALID,199,VALID,0.604297,
2011-07-12, 00:47:05,VALID,916.023,VALID,0,VALID,97.3739,VALID,0,VALID,18.9828,VALID,187,VALID,0.7875,
2011-07-12, 00:48:05,VALID,916.076,VALID,0,VALID,97.3663,VALID,0,VALID,18.9814,VALID,177,VALID,0.575781,
2011-07-12, 00:49:05,VALID,916.048,VALID,0,VALID,97.3968,VALID,0,VALID,19.0008,VALID,220,VALID,0.646875,
2011-07-12, 00:50:05,VALID,915.982,VALID,0,VALID,97.3968,VALID,0,VALID,19.0218,VALID,34,VALID,1.59414,
2011-07-12, 00:51:05,VALID,915.989,VALID,0,VALID,97.3891,VALID,0,VALID,19.0008,VALID,340,VALID,1.12578,
2011-07-12, 00:52:05,VALID,915.995,VALID,0,VALID,97.3815,VALID,0,VALID,19.0008,VALID,210,VALID,0.633984,
2011-07-12, 00:53:05,VALID,915.969,VALID,0,VALID,97.3739,VALID,0,VALID,19.0218,VALID,81,VALID,1.57695,
2011-07-12, 00:54:05,VALID,915.942,VALID,0,VALID,97.3586,VALID,0,VALID,19.0023,VALID,51,VALID,1.79414,
2011-07-12, 00:55:05,VALID,915.88,VALID,0,VALID,97.3891,VALID,0,VALID,19.0023,VALID,46,VALID,0.948047,
2011-07-12, 00:56:05,VALID,915.897,VALID,0,VALID,97.3968,VALID,0,VALID,19.0023,VALID,280,VALID,0.914063,
2011-07-12, 00:57:05,VALID,915.881,VALID,0,VALID,97.4044,VALID,0,VALID,19.0023,VALID,113,VALID,1.20469,
2011-07-12, 00:58:05,VALID,915.817,VALID,0,VALID,97.3815,VALID,0,VALID,18.9814,VALID,339,VALID,1.37852,
2011-07-12, 00:59:05,VALID,915.856,VALID,0,VALID,97.412,VALID,0,VALID,18.9799,VALID,42,VALID,1.97891,
2011-07-12, 01:00:05,VALID,915.822,VALID,0,VALID,97.4273,VALID,0,VALID,19.0203,VALID,345,VALID,2.64297,
2011-07-12, 01:01:05,VALID,915.789,VALID,0,VALID,97.4044,VALID,0,VALID,19.0218,VALID,270,VALID,0.79375,
2011-07-12, 01:02:05,VALID,915.816,VALID,0,VALID,97.4044,VALID,0,VALID,19.0008,VALID,75,VALID,0.933594,
2011-07-12, 01:03:05,VALID,915.782,VALID,0,VALID,97.4044,VALID,0,VALID,19.0203,VALID,214,VALID,0.375781,
2011-07-12, 01:04:05,VALID,915.764,VALID,0,VALID,97.4196,VALID,0,VALID,19.0008,VALID,165,VALID,0.967969,
2011-07-12, 01:05:05,VALID,915.795,VALID,0,VALID,97.4196,VALID,0,VALID,19.0203,VALID,19,VALID,0.586328,
2011-07-12, 01:06:05,VALID,915.714,VALID,0,VALID,97.4273,VALID,0,VALID,19.0218,VALID,326,VALID,1.10156,
2011-07-12, 01:07:05,VALID,915.71,VALID,0,VALID,97.4196,VALID,0,VALID,19.0203,VALID,42,VALID,2.57734,
2011-07-12, 01:08:05,VALID,915.685,VALID,0,VALID,97.4349,VALID,0,VALID,19.0203,VALID,35,VALID,1.02617,
2011-07-12, 01:09:05,VALID,915.752,VALID,0,VALID,97.4349,VALID,0,VALID,19.0788,VALID,300,VALID,1.14688,
2011-07-12, 01:10:05,VALID,915.685,VALID,0,VALID,97.412,VALID,0,VALID,19.0008,VALID,35,VALID,1.8457,
2011-07-12, 01:11:05,VALID,915.689,VALID,0,VALID,97.3968,VALID,0,VALID,19.0203,VALID,35,VALID,1.18633,
2011-07-12, 01:12:05,VALID,915.746,VALID,0,VALID,97.4273,VALID,0,VALID,18.9814,VALID,355,VALID,0.757813,
2011-07-12, 01:13:05,VALID,915.684,VALID,0,VALID,97.4273,VALID,0,VALID,18.9828,VALID,57,VALID,1.50977,
2011-07-12, 01:14:05,VALID,915.68,VALID,0,VALID,97.412,VALID,0,VALID,19.0008,VALID,237,VALID,2.35391,
2011-07-12, 01:15:05,VALID,915.701,VALID,0,VALID,97.412,VALID,0,VALID,18.9814,VALID,30,VALID,2.00625,
2011-07-12, 01:16:05,VALID,915.736,VALID,0,VALID,97.4196,VALID,0,VALID,19.0203,VALID,17,VALID,1.08633,
2011-07-12, 01:17:05,VALID,915.684,VALID,0,VALID,97.4425,VALID,0,VALID,19.0008,VALID,57,VALID,1.54414,
2011-07-12, 01:18:05,VALID,915.789,VALID,0,VALID,97.4349,VALID,0,VALID,19.0203,VALID,27,VALID,0.156641,
2011-07-12, 01:19:05,VALID,915.754,VALID,0,VALID,97.4349,VALID,0,VALID,19.0398,VALID,12,VALID,2.64805,
2011-07-12, 01:20:05,VALID,915.816,VALID,0,VALID,97.4349,VALID,0,VALID,19.0398,VALID,253,VALID,0.681641,
2011-07-12, 01:21:05,VALID,915.767,VALID,0,VALID,97.4196,VALID,0,VALID,19.0203,VALID,78,VALID,0.699609,
2011-07-12, 01:22:05,VALID,915.841,VALID,0,VALID,97.4273,VALID,0,VALID,19.0203,VALID,186,VALID,0.996094,
2011-07-12, 01:23:05,VALID,915.8,VALID,0,VALID,97.4425,VALID,0,VALID,19.0203,VALID,81,VALID,1.39414,
2011-07-12, 01:24:05,VALID,915.775,VALID,0,VALID,97.4425,VALID,0,VALID,19.0008,VALID,338,VALID,1.61836,
2011-07-12, 01:25:05,VALID,915.791,VALID,0,VALID,97.4273,VALID,0,VALID,18.9814,VALID,237,VALID,0.888281,
2011-07-12, 01:26:05,VALID,915.74,VALID,0,VALID,97.4196,VALID,0,VALID,18.9814,VALID,254,VALID,0.411328,
2011-07-12, 01:27:05,VALID,915.732,VALID,0,VALID,97.4349,VALID,0,VALID,19.0218,VALID,96,VALID,1.15742,
2011-07-12, 01:28:05,VALID,915.715,VALID,0,VALID,97.4349,VALID,0,VALID,19.0008,VALID,27,VALID,0.826953,
2011-07-12, 01:29:05,VALID,915.668,VALID,0,VALID,97.4654,VALID,0,VALID,19.0008,VALID,356,VALID,1.50625,
2011-07-12, 01:30:05,VALID,915.584,VALID,0,VALID,97.4501,VALID,0,VALID,19.0203,VALID,293,VALID,1.18477,
2011-07-12, 01:31:05,VALID,915.593,VALID,0,VALID,97.4425,VALID,0,VALID,19.0008,VALID,179,VALID,2.68477,
2011-07-12, 01:32:05,VALID,915.633,VALID,0,VALID,97.412,VALID,0,VALID,18.9814,VALID,291,VALID,3.05117,
2011-07-12, 01:33:05,VALID,915.629,VALID,0.2,VALID,97.4425,VALID,0,VALID,19.0023,VALID,309,VALID,1.05977,
2011-07-12, 01:34:05,VALID,915.595,VALID,0,VALID,97.4273,VALID,0,VALID,19.0008,VALID,125,VALID,0.975,
2011-07-12, 01:35:05,VALID,915.61,VALID,0,VALID,97.4349,VALID,0,VALID,18.9619,VALID,289,VALID,1.37383,
2011-07-12, 01:36:05,VALID,915.607,VALID,0,VALID,97.4273,VALID,0,VALID,19.0413,VALID,16,VALID,1.20469,
2011-07-12, 01:37:05,VALID,915.672,VALID,0.2,VALID,97.4425,VALID,0,VALID,19.0008,VALID,248,VALID,1.48867,
2011-07-12, 01:38:05,VALID,915.64,VALID,0.2,VALID,97.4349,VALID,0,VALID,19.0398,VALID,322,VALID,1.68398,
2011-07-12, 01:39:05,VALID,915.537,VALID,0.2,VALID,97.4196,VALID,0,VALID,19.0203,VALID,205,VALID,1.30508,
2011-07-12, 01:40:05,VALID,915.614,VALID,0,VALID,97.4501,VALID,0,VALID,18.9814,VALID,264,VALID,0.551953,
2011-07-12, 01:41:05,VALID,915.608,VALID,0,VALID,97.4273,VALID,0,VALID,19.0398,VALID,56,VALID,1.21328,
2011-07-12, 01:42:05,VALID,915.684,VALID,0,VALID,97.4273,VALID,0,VALID,19.0008,VALID,300,VALID,0.492188,
2011-07-12, 01:43:05,VALID,915.636,VALID,0,VALID,97.4196,VALID,0,VALID,19.0203,VALID,66,VALID,0.802734,
2011-07-12, 01:44:05,VALID,915.678,VALID,0,VALID,97.4196,VALID,0,VALID,19.0008,VALID,58,VALID,1.39375,
2011-07-12, 01:45:05,VALID,915.631,VALID,0,VALID,97.412,VALID,0,VALID,19.0398,VALID,48,VALID,1.59883,
2011-07-12, 01:46:05,VALID,915.66,VALID,0,VALID,97.4425,VALID,0,VALID,19.0788,VALID,183,VALID,1.23203,
2011-07-12, 01:47:05,VALID,915.667,VALID,0,VALID,97.4349,VALID,0,VALID,19.0398,VALID,239,VALID,0.976172,
2011-07-12, 01:48:05,VALID,915.625,VALID,0,VALID,97.4349,VALID,0,VALID,19.0398,VALID,338,VALID,1.43633,
2011-07-12, 01:49:04,VALID,915.542,VALID,0,VALID,97.4273,VALID,0,VALID,19.0788,VALID,206,VALID,1.43984,
2011-07-12, 01:50:04,VALID,915.529,VALID,0,VALID,97.4273,VALID,0,VALID,19.0788,VALID,40,VALID,1.17813,
2011-07-12, 01:51:04,VALID,915.545,VALID,0,VALID,97.4273,VALID,0,VALID,19.0579,VALID,60,VALID,1.10156,
2011-07-12, 01:52:04,VALID,915.583,VALID,0,VALID,97.4273,VALID,0,VALID,19.0593,VALID,134,VALID,0.952734,
2011-07-12, 01:53:04,VALID,915.614,VALID,0,VALID,97.4273,VALID,0,VALID,19.0398,VALID,202,VALID,1.00352,
2011-07-12, 01:54:04,VALID,915.551,VALID,0,VALID,97.4196,VALID,0,VALID,19.0398,VALID,70,VALID,1.60508,
2011-07-12, 01:55:04,VALID,915.573,VALID,0,VALID,97.4425,VALID,0,VALID,19.0593,VALID,23,VALID,1.73242,
2011-07-12, 01:56:04,VALID,915.52,VALID,0,VALID,97.4044,VALID,0,VALID,19.0593,VALID,280,VALID,1.5375,
2011-07-12, 01:57:04,VALID,915.538,VALID,0,VALID,97.4196,VALID,0,VALID,19.0398,VALID,248,VALID,2.07188,
2011-07-12, 01:58:04,VALID,915.525,VALID,0,VALID,97.4196,VALID,0,VALID,19.0398,VALID,32,VALID,1.16055,
2011-07-12, 01:59:04,VALID,915.463,VALID,0,VALID,97.4196,VALID,0,VALID,19.0384,VALID,39,VALID,2.64453,
2011-07-12, 02:00:04,VALID,915.425,VALID,0,VALID,97.3968,VALID,0,VALID,19.0398,VALID,204,VALID,1.60391,
2011-07-12, 02:01:04,VALID,915.456,VALID,0,VALID,97.412,VALID,0,VALID,19.0398,VALID,311,VALID,0.943359,
2011-07-12, 02:02:04,VALID,915.46,VALID,0,VALID,97.412,VALID,0,VALID,19.0803,VALID,19,VALID,1.0543,
2011-07-12, 02:03:04,VALID,915.391,VALID,0,VALID,97.3891,VALID,0,VALID,19.0593,VALID,19,VALID,1.58828,
2011-07-12, 02:04:04,VALID,915.395,VALID,0,VALID,97.3968,VALID,0,VALID,19.0803,VALID,22,VALID,1.64961,
2011-07-12, 02:05:04,VALID,915.311,VALID,0.2,VALID,97.412,VALID,0,VALID,19.0788,VALID,14,VALID,1.24648,
2011-07-12, 02:06:04,VALID,915.283,VALID,0,VALID,97.3815,VALID,0,VALID,19.0803,VALID,356,VALID,1.48711,
2011-07-12, 02:07:04,VALID,915.176,VALID,0,VALID,97.4044,VALID,0,VALID,19.0593,VALID,29,VALID,1.82461,
2011-07-12, 02:08:04,VALID,915.189,VALID,0,VALID,97.3968,VALID,0,VALID,19.0788,VALID,73,VALID,1.00859,
2011-07-12, 02:09:04,VALID,915.201,VALID,0,VALID,97.3968,VALID,0,VALID,19.0593,VALID,65,VALID,2.17422,
2011-07-12, 02:10:04,VALID,915.209,VALID,0,VALID,97.3891,VALID,0,VALID,19.0398,VALID,313,VALID,0.775391,
2011-07-12, 02:11:04,VALID,915.191,VALID,0,VALID,97.3739,VALID,0,VALID,19.0608,VALID,68,VALID,1.15156,
2011-07-12, 02:12:04,VALID,915.146,VALID,0,VALID,97.3815,VALID,0,VALID,19.0608,VALID,29,VALID,2.09648,
2011-07-12, 02:13:04,VALID,915.088,VALID,0,VALID,97.3891,VALID,0,VALID,19.0398,VALID,45,VALID,1.75195,
2011-07-12, 02:14:04,VALID,915.148,VALID,0,VALID,97.3968,VALID,0,VALID,19.0608,VALID,306,VALID,1.45938,
2011-07-12, 02:15:04,VALID,915.137,VALID,0,VALID,97.3739,VALID,0,VALID,19.0398,VALID,53,VALID,1.72617,
2011-07-12, 02:16:04,VALID,915.127,VALID,0,VALID,97.3891,VALID,0,VALID,19.0398,VALID,38,VALID,1.95273,
2011-07-12, 02:17:04,VALID,915.099,VALID,0,VALID,97.4349,VALID,0,VALID,19.0608,VALID,34,VALID,2.11836,
2011-07-12, 02:18:04,VALID,915.028,VALID,0,VALID,97.3739,VALID,0,VALID,19.0398,VALID,11,VALID,2.12188,
2011-07-12, 02:19:04,VALID,915.009,VALID,0,VALID,97.3586,VALID,0,VALID,19.0008,VALID,35,VALID,3.06953,
2011-07-12, 02:20:04,VALID,915.074,VALID,0,VALID,97.3663,VALID,0,VALID,19.0008,VALID,6,VALID,2.08828,
2011-07-12, 02:21:04,VALID,915.001,VALID,0,VALID,97.3586,VALID,0,VALID,19.0218,VALID,32,VALID,2.49531,
2011-07-12, 02:22:04,VALID,915.047,VALID,0,VALID,97.3739,VALID,0,VALID,19.0008,VALID,39,VALID,2.61758,
2011-07-12, 02:23:04,VALID,914.956,VALID,0,VALID,97.3739,VALID,0,VALID,19.0203,VALID,39,VALID,2.23281,
2011-07-12, 02:24:04,VALID,914.924,VALID,0,VALID,97.3434,VALID,0,VALID,19.0008,VALID,15,VALID,2.63867,
2011-07-12, 02:25:04,VALID,914.948,VALID,0,VALID,97.3281,VALID,0,VALID,19.0023,VALID,25,VALID,2.76563,
2011-07-12, 02:26:04,VALID,914.952,VALID,0,VALID,97.3129,VALID,0,VALID,18.9619,VALID,14,VALID,2.67695,
2011-07-12, 02:27:04,VALID,914.921,VALID,0,VALID,97.3205,VALID,0,VALID,19.0008,VALID,272,VALID,0.671094,
2011-07-12, 02:28:04,VALID,914.915,VALID,0,VALID,97.2977,VALID,0,VALID,19.0413,VALID,37,VALID,1.37695,
2011-07-12, 02:29:04,VALID,914.91,VALID,0,VALID,97.3358,VALID,0,VALID,19.0203,VALID,42,VALID,1.03711,
2011-07-12, 02:30:04,VALID,914.927,VALID,0,VALID,97.3129,VALID,0,VALID,19.0203,VALID,18,VALID,1.30859,
2011-07-12, 02:31:04,VALID,914.904,VALID,0,VALID,97.3205,VALID,0,VALID,19.0203,VALID,46,VALID,0.469531,
2011-07-12, 02:32:04,VALID,914.9,VALID,0,VALID,97.3053,VALID,0,VALID,18.9994,VALID,12,VALID,0.882031,
2011-07-12, 02:33:04,VALID,914.906,VALID,0,VALID,97.3129,VALID,0,VALID,19.0203,VALID,340,VALID,0.624219,
2011-07-12, 02:34:04,VALID,914.921,VALID,0,VALID,97.2977,VALID,0,VALID,18.9814,VALID,235,VALID,0.380859,
2011-07-12, 02:35:04,VALID,914.907,VALID,0,VALID,97.2748,VALID,0,VALID,18.9814,VALID,6,VALID,1.17734,
2011-07-12, 02:36:04,VALID,914.869,VALID,0.2,VALID,97.2748,VALID,0,VALID,18.9814,VALID,31,VALID,1.08867,
2011-07-12, 02:37:04,VALID,914.821,VALID,0,VALID,97.2977,VALID,0,VALID,18.9814,VALID,57,VALID,0.798047,
2011-07-12, 02:38:04,VALID,914.806,VALID,0,VALID,97.2672,VALID,0,VALID,19.0008,VALID,64,VALID,1.19062,
2011-07-12, 02:39:04,VALID,914.763,VALID,0,VALID,97.2824,VALID,0,VALID,19.0008,VALID,60,VALID,1.08242,
2011-07-12, 02:40:04,VALID,914.739,VALID,0,VALID,97.29,VALID,0,VALID,19.0008,VALID,33,VALID,1.58945,
2011-07-12, 02:41:04,VALID,914.768,VALID,0,VALID,97.2977,VALID,0,VALID,19.0008,VALID,111,VALID,0.871875,
2011-07-12, 02:42:04,VALID,914.749,VALID,0,VALID,97.2443,VALID,0,VALID,19.0008,VALID,55,VALID,1.78984,
2011-07-12, 02:43:04,VALID,914.755,VALID,0,VALID,97.2748,VALID,0,VALID,19.0008,VALID,215,VALID,0.560938,
2011-07-12, 02:44:04,VALID,914.757,VALID,0,VALID,97.3053,VALID,0,VALID,19.0008,VALID,37,VALID,1.91797,
2011-07-12, 02:45:04,VALID,914.668,VALID,0,VALID,97.2977,VALID,0,VALID,19.0008,VALID,356,VALID,2.5207,
2011-07-12, 02:46:04,VALID,914.74,VALID,0,VALID,97.2748,VALID,0,VALID,19.0008,VALID,184,VALID,0.844531,
2011-07-12, 02:47:04,VALID,914.711,VALID,0,VALID,97.2748,VALID,0,VALID,19.0008,VALID,173,VALID,1.21758,
2011-07-12, 02:48:04,VALID,914.741,VALID,0,VALID,97.2595,VALID,0,VALID,18.9814,VALID,152,VALID,1.00937,
2011-07-12, 02:49:04,VALID,914.752,VALID,0,VALID,97.2977,VALID,0,VALID,19.0008,VALID,28,VALID,2.04609,
2011-07-12, 02:50:04,VALID,914.714,VALID,0,VALID,97.2824,VALID,0,VALID,19.0203,VALID,47,VALID,1.78984,
2011-07-12, 02:51:04,VALID,914.744,VALID,0,VALID,97.29,VALID,0,VALID,19.0203,VALID,35,VALID,1.22461,
2011-07-12, 02:52:04,VALID,914.747,VALID,0,VALID,97.2595,VALID,0,VALID,19.0398,VALID,319,VALID,1.00781,
2011-07-12, 02:53:04,VALID,914.658,VALID,0,VALID,97.2824,VALID,0,VALID,19.0398,VALID,54,VALID,1.35039,
2011-07-12, 02:54:04,VALID,914.688,VALID,0,VALID,97.2672,VALID,0,VALID,18.9828,VALID,221,VALID,0.666797,
2011-07-12, 02:55:04,VALID,914.687,VALID,0,VALID,97.2748,VALID,0,VALID,19.0203,VALID,221,VALID,0.561719,
2011-07-12, 02:56:04,VALID,914.638,VALID,0.2,VALID,97.2824,VALID,0,VALID,18.9619,VALID,38,VALID,1.00703,
2011-07-12, 02:57:04,VALID,914.65,VALID,0,VALID,97.2595,VALID,0,VALID,19.0203,VALID,17,VALID,0.417188,
2011-07-12, 02:58:04,VALID,914.578,VALID,0,VALID,97.2519,VALID,0,VALID,18.9814,VALID,347,VALID,1.53867,
2011-07-12, 02:59:04,VALID,914.598,VALID,0,VALID,97.2672,VALID,0,VALID,19.0023,VALID,315,VALID,0.901563,
2011-07-12, 03:00:04,VALID,914.611,VALID,0,VALID,97.29,VALID,0,VALID,19.0008,VALID,26,VALID,1.42305,
2011-07-12, 03:01:04,VALID,914.603,VALID,0,VALID,97.29,VALID,0,VALID,19.0008,VALID,340,VALID,0.807813,
2011-07-12, 03:02:04,VALID,914.608,VALID,0,VALID,97.2977,VALID,0,VALID,19.0398,VALID,9,VALID,0.817187,
2011-07-12, 03:03:04,VALID,914.605,VALID,0,VALID,97.2824,VALID,0,VALID,19.0398,VALID,19,VALID,1.16523,
2011-07-12, 03:04:04,VALID,914.592,VALID,0,VALID,97.29,VALID,0,VALID,19.0593,VALID,4,VALID,0.488281,
2011-07-12, 03:05:04,VALID,914.539,VALID,0,VALID,97.2672,VALID,0,VALID,18.9814,VALID,60,VALID,1.33555,
2011-07-12, 03:06:04,VALID,914.576,VALID,0,VALID,97.3053,VALID,0,VALID,19.0008,VALID,247,VALID,1.07969,
2011-07-12, 03:07:04,VALID,914.587,VALID,0,VALID,97.2977,VALID,0,VALID,19.0398,VALID,187,VALID,1.00156,
2011-07-12, 03:08:04,VALID,914.569,VALID,0,VALID,97.2977,VALID,0,VALID,19.0593,VALID,227,VALID,0.415234,
2011-07-12, 03:09:04,VALID,914.558,VALID,0,VALID,97.3053,VALID,0,VALID,19.0803,VALID,84,VALID,0.412891,
2011-07-12, 03:10:04,VALID,914.557,VALID,0,VALID,97.3053,VALID,0,VALID,19.0413,VALID,122,VALID,1.22539,
2011-07-12, 03:11:04,VALID,914.529,VALID,0,VALID,97.2824,VALID,0,VALID,19.0008,VALID,212,VALID,0.978516,
2011-07-12, 03:12:04,VALID,914.498,VALID,0,VALID,97.3129,VALID,0,VALID,19.0203,VALID,44,VALID,1.26289,
2011-07-12, 03:13:04,VALID,914.471,VALID,0,VALID,97.29,VALID,0,VALID,19.0203,VALID,49,VALID,1.01719,
2011-07-12, 03:14:04,VALID,914.476,VALID,0,VALID,97.3053,VALID,0,VALID,19.0398,VALID,359,VALID,0.251953,
2011-07-12, 03:15:04,VALID,914.434,VALID,0,VALID,97.3205,VALID,0,VALID,19.0218,VALID,200,VALID,0.764453,
2011-07-12, 03:16:04,VALID,914.438,VALID,0,VALID,97.3205,VALID,0,VALID,19.0218,VALID,330,VALID,1.1625,
2011-07-12, 03:17:04,VALID,914.451,VALID,0,VALID,97.2977,VALID,0,VALID,19.0413,VALID,33,VALID,0.996094,
2011-07-12, 03:18:04,VALID,914.405,VALID,0,VALID,97.3129,VALID,0,VALID,19.0608,VALID,46,VALID,1.57383,
2011-07-12, 03:19:04,VALID,914.345,VALID,0,VALID,97.3053,VALID,0,VALID,19.0203,VALID,317,VALID,0.971094,
2011-07-12, 03:20:04,VALID,914.365,VALID,0,VALID,97.3358,VALID,0,VALID,19.0008,VALID,28,VALID,2.32031,
2011-07-12, 03:21:04,VALID,914.331,VALID,0,VALID,97.3129,VALID,0,VALID,19.0398,VALID,39,VALID,2.1832,
2011-07-12, 03:22:04,VALID,914.354,VALID,0,VALID,97.3205,VALID,0,VALID,19.0398,VALID,274,VALID,0.305078,
2011-07-12, 03:23:04,VALID,914.309,VALID,0,VALID,97.3205,VALID,0,VALID,19.0413,VALID,27,VALID,0.546484,
2011-07-12, 03:24:04,VALID,914.285,VALID,0,VALID,97.3281,VALID,0,VALID,19.0398,VALID,27,VALID,1.09687,
2011-07-12, 03:25:04,VALID,914.247,VALID,0,VALID,97.3358,VALID,0,VALID,19.0608,VALID,27,VALID,0.839844,
2011-07-12, 03:26:04,VALID,914.217,VALID,0,VALID,97.3205,VALID,0,VALID,19.0803,VALID,27,VALID,0.572656,
2011-07-12, 03:27:04,VALID,914.231,VALID,0,VALID,97.3434,VALID,0,VALID,19.0593,VALID,235,VALID,0.414063,
2011-07-12, 03:28:04,VALID,914.198,VALID,0,VALID,97.3434,VALID,0,VALID,19.0608,VALID,235,VALID,0.368359,
2011-07-12, 03:29:04,VALID,914.193,VALID,0,VALID,97.3434,VALID,0,VALID,19.0788,VALID,251,VALID,0.965234,
2011-07-12, 03:30:04,VALID,914.196,VALID,0,VALID,97.3281,VALID,0,VALID,19.0384,VALID,320,VALID,0.999219,
2011-07-12, 03:31:04,VALID,914.151,VALID,0,VALID,97.3129,VALID,0,VALID,19.0398,VALID,316,VALID,1.33984,
2011-07-12, 03:32:04,VALID,914.19,VALID,0,VALID,97.3358,VALID,0,VALID,19.0384,VALID,36,VALID,0.862891,
2011-07-12, 03:33:04,VALID,914.186,VALID,0.2,VALID,97.3129,VALID,0,VALID,19.0384,VALID,37,VALID,0.640625,
2011-07-12, 03:34:04,VALID,914.168,VALID,0,VALID,97.3129,VALID,0,VALID,19.0788,VALID,37,VALID,1.29766,
2011-07-12, 03:35:04,VALID,914.203,VALID,0,VALID,97.3586,VALID,0.107441,VALID,19.0579,VALID,58,VALID,1.28125,
2011-07-12, 03:36:04,VALID,914.217,VALID,0,VALID,97.351,VALID,0,VALID,19.0593,VALID,59,VALID,0.610937,
2011-07-12, 03:37:04,VALID,914.203,VALID,0,VALID,97.351,VALID,0,VALID,19.0579,VALID,36,VALID,1.49609,
2011-07-12, 03:38:04,VALID,914.203,VALID,0,VALID,97.351,VALID,0,VALID,19.0774,VALID,359,VALID,1.28828,
2011-07-12, 03:39:04,VALID,914.22,VALID,0,VALID,97.351,VALID,0,VALID,19.0579,VALID,7,VALID,1.11094,
2011-07-12, 03:40:04,VALID,914.223,VALID,0,VALID,97.3053,VALID,0,VALID,19.0579,VALID,343,VALID,1.34297,
2011-07-12, 03:41:04,VALID,914.212,VALID,0,VALID,97.3053,VALID,0,VALID,19.0579,VALID,51,VALID,1.95234,
2011-07-12, 03:42:04,VALID,914.254,VALID,0,VALID,97.3281,VALID,0,VALID,19.0384,VALID,52,VALID,0.855859,
2011-07-12, 03:43:04,VALID,914.251,VALID,0.2,VALID,97.3586,VALID,0,VALID,19.0384,VALID,42,VALID,1.18867,
2011-07-12, 03:44:04,VALID,914.255,VALID,0,VALID,97.3358,VALID,0,VALID,19.0398,VALID,42,VALID,0.648047,
2011-07-12, 03:45:04,VALID,914.269,VALID,0,VALID,97.3434,VALID,0,VALID,19.0398,VALID,42,VALID,0.157813,
2011-07-12, 03:46:04,VALID,914.254,VALID,0.2,VALID,97.3358,VALID,0,VALID,19.0593,VALID,106,VALID,0.843359,